DLH3LR EDDF-EPKK

Flight info

Callsign DLH3LR
Flight time N/A
Altitude 35000
Route TOBAK3W/25C TOBAK N858 SWALM T201 TAMEB DCT NEVKO DCT OMELO DCT OMIFU DCT ETUDA DCT SOPAV DCT PADKA
Aircraft A320/M-SDE2E3FGIJ1LORWXYZ/HB1

Departure

Time 2026-05-07 11:15
Airport Frankfurt Main Airport (EDDF)

Arrival

Time N/A
Airport Kraków John Paul II International Airport (EPKK)
Time Latitude Longitude Altitude Speed Heading
2026-05-07 10:52 50.04687 8.56701 363 ft 0 kts 115°
2026-05-07 11:03 50.04690 8.56689 362 ft 4 kts 115°
2026-05-07 11:03 50.04693 8.56681 360 ft 4 kts 115°
2026-05-07 11:04 50.04702 8.56648 360 ft 4 kts 119°
2026-05-07 11:04 50.04717 8.56626 362 ft 4 kts 190°
2026-05-07 11:04 50.04740 8.56641 358 ft 3 kts 205°
2026-05-07 11:04 50.04763 8.56658 362 ft 4 kts 208°
2026-05-07 11:05 50.04780 8.56672 361 ft 0 kts 205°
2026-05-07 11:07 50.04779 8.56672 361 ft 2 kts 205°
2026-05-07 11:08 50.04746 8.56636 359 ft 7 kts 226°
2026-05-07 11:08 50.04720 8.56584 362 ft 5 kts 233°
2026-05-07 11:08 50.04682 8.56535 358 ft 10 kts 211°
2026-05-07 11:08 50.04611 8.56483 356 ft 12 kts 204°
2026-05-07 11:09 50.04532 8.56422 361 ft 13 kts 220°
2026-05-07 11:09 50.04492 8.56282 357 ft 15 kts 250°
2026-05-07 11:09 50.04455 8.56128 364 ft 14 kts 249°
2026-05-07 11:09 50.04402 8.56026 356 ft 12 kts 188°
2026-05-07 11:10 50.04348 8.56053 363 ft 8 kts 158°
2026-05-07 11:10 50.04299 8.56095 360 ft 11 kts 131°
2026-05-07 11:10 50.04280 8.56205 358 ft 10 kts 125°
2026-05-07 11:10 50.04199 8.56264 355 ft 16 kts 160°
2026-05-07 11:11 50.04147 8.56358 359 ft 12 kts 78°
2026-05-07 11:11 50.04180 8.56499 357 ft 19 kts 69°
2026-05-07 11:11 50.04231 8.56712 360 ft 21 kts 70°
2026-05-07 11:11 50.04278 8.56911 361 ft 19 kts 70°
2026-05-07 11:12 50.04323 8.57101 361 ft 18 kts 69°
2026-05-07 11:12 50.04364 8.57269 364 ft 16 kts 69°
2026-05-07 11:12 50.04400 8.57421 363 ft 14 kts 70°
2026-05-07 11:12 50.04441 8.57595 366 ft 20 kts 69°
2026-05-07 11:13 50.04486 8.57781 368 ft 14 kts 69°
2026-05-07 11:13 50.04518 8.57914 366 ft 12 kts 69°
2026-05-07 11:13 50.04537 8.58024 364 ft 10 kts 95°
2026-05-07 11:13 50.04474 8.58095 367 ft 14 kts 160°
2026-05-07 11:14 50.04394 8.58125 367 ft 10 kts 192°
2026-05-07 11:14 50.04354 8.58034 369 ft 15 kts 249°
2026-05-07 11:14 50.04243 8.57570 363 ft 83 kts 249°
2026-05-07 11:14 50.03969 8.56421 353 ft 142 kts 250°
2026-05-07 11:15 50.03593 8.54844 752 ft 157 kts 250°
2026-05-07 11:15 50.03213 8.53250 1525 ft 156 kts 252°
2026-05-07 11:15 50.02820 8.51600 2042 ft 173 kts 252°
2026-05-07 11:15 50.02227 8.49834 2426 ft 198 kts 233°
2026-05-07 11:16 50.01110 8.48457 3071 ft 211 kts 206°
2026-05-07 11:16 49.99679 8.47874 3920 ft 216 kts 190°
2026-05-07 11:16 49.98188 8.47551 4806 ft 217 kts 189°
2026-05-07 11:16 49.96680 8.47224 5636 ft 220 kts 190°
2026-05-07 11:17 49.95164 8.46664 6259 ft 233 kts 198°
2026-05-07 11:17 49.93535 8.45913 6747 ft 253 kts 198°
2026-05-07 11:17 49.91931 8.44758 7484 ft 257 kts 222°
2026-05-07 11:17 49.90870 8.42583 8345 ft 255 kts 251°
2026-05-07 11:18 49.90626 8.39900 9254 ft 253 kts 279°
2026-05-07 11:18 49.91251 8.37377 10123 ft 254 kts 307°
2026-05-07 11:18 49.92599 8.35608 10917 ft 259 kts 333°
2026-05-07 11:18 49.94294 8.34471 11427 ft 276 kts 336°
2026-05-07 11:19 49.96147 8.33278 11720 ft 300 kts 336°
2026-05-07 11:19 49.98147 8.31999 12090 ft 319 kts 337°
2026-05-07 11:19 50.00224 8.30666 12785 ft 326 kts 336°
2026-05-07 11:19 50.02360 8.29403 13554 ft 331 kts 343°
2026-05-07 11:20 50.04649 8.28802 14251 ft 337 kts 356°
2026-05-07 11:20 50.07005 8.29045 14929 ft 343 kts
2026-05-07 11:20 50.09310 8.30087 15604 ft 348 kts 17°
2026-05-07 11:20 50.10862 8.30912 16065 ft 350 kts 17°
2026-05-07 11:21 50.13934 8.32534 16979 ft 354 kts 18°
2026-05-07 11:21 50.15519 8.33365 17433 ft 357 kts 17°
2026-05-07 11:21 50.17883 8.34605 18089 ft 360 kts 18°
2026-05-07 11:21 50.20269 8.35861 18700 ft 364 kts 18°
2026-05-07 11:22 50.22679 8.37132 19274 ft 367 kts 18°
2026-05-07 11:22 50.25107 8.38416 19852 ft 370 kts 17°
2026-05-07 11:22 50.27541 8.39785 20440 ft 374 kts 23°
2026-05-07 11:22 50.29833 8.41742 21007 ft 378 kts 33°
2026-05-07 11:23 50.31890 8.44341 21544 ft 382 kts 40°
2026-05-07 11:23 50.33882 8.47121 22102 ft 385 kts 40°
2026-05-07 11:23 50.35893 8.49920 22649 ft 388 kts 40°
2026-05-07 11:23 50.37920 8.52737 23154 ft 391 kts 40°
2026-05-07 11:24 50.39967 8.55576 23660 ft 394 kts 40°
2026-05-07 11:24 50.41999 8.58400 24088 ft 397 kts 41°
2026-05-07 11:24 50.44099 8.61323 24546 ft 399 kts 40°
2026-05-07 11:24 50.46167 8.64166 24992 ft 402 kts 39°
2026-05-07 11:25 50.48302 8.67010 25421 ft 404 kts 39°
2026-05-07 11:25 50.50466 8.69840 25849 ft 406 kts 39°
2026-05-07 11:25 50.52649 8.72675 26269 ft 408 kts 39°
2026-05-07 11:25 50.54842 8.75531 26690 ft 410 kts 39°
2026-05-07 11:26 50.56863 8.78717 27067 ft 413 kts 50°
2026-05-07 11:26 50.58523 8.82420 27473 ft 416 kts 60°
2026-05-07 11:26 50.59910 8.86429 27858 ft 418 kts 62°
2026-05-07 11:26 50.61301 8.90466 28254 ft 420 kts 61°
2026-05-07 11:27 50.62706 8.94516 28646 ft 423 kts 61°
2026-05-07 11:27 50.64122 8.98583 29029 ft 425 kts 61°
2026-05-07 11:27 50.65547 9.02675 29420 ft 427 kts 61°
2026-05-07 11:27 50.66976 9.06784 29806 ft 429 kts 61°
2026-05-07 11:28 50.68411 9.10924 30158 ft 431 kts 61°
2026-05-07 11:28 50.69848 9.15085 30452 ft 434 kts 61°
2026-05-07 11:28 50.71231 9.19327 30724 ft 436 kts 66°
2026-05-07 11:28 50.72236 9.23854 30992 ft 439 kts 75°
2026-05-07 11:29 50.72947 9.28558 31244 ft 442 kts 76°
2026-05-07 11:29 50.73655 9.33291 31503 ft 444 kts 76°
2026-05-07 11:29 50.74368 9.38049 31836 ft 445 kts 77°
2026-05-07 11:29 50.75081 9.42788 32273 ft 443 kts 77°
2026-05-07 11:30 50.75794 9.47518 32653 ft 443 kts 77°
2026-05-07 11:30 50.76507 9.52255 32980 ft 444 kts 77°
2026-05-07 11:30 50.77218 9.57002 33302 ft 445 kts 77°
2026-05-07 11:30 50.77926 9.61766 33602 ft 446 kts 77°
2026-05-07 11:31 50.78632 9.66544 33944 ft 447 kts 76°
2026-05-07 11:31 50.79339 9.71339 34225 ft 449 kts 77°
2026-05-07 11:31 50.80047 9.76144 34513 ft 449 kts 77°
2026-05-07 11:31 50.80755 9.80952 34738 ft 450 kts 77°
2026-05-07 11:32 50.82166 9.90601 35001 ft 447 kts 77°
2026-05-07 11:32 50.82859 9.95364 35015 ft 443 kts 77°
2026-05-07 11:33 50.84197 10.04857 35011 ft 441 kts 81°
2026-05-07 11:33 50.84271 10.14442 35009 ft 440 kts 96°
2026-05-07 11:34 50.83706 10.24073 35002 ft 440 kts 96°
2026-05-07 11:34 50.83150 10.33720 35007 ft 440 kts 96°
2026-05-07 11:35 50.82588 10.43361 34998 ft 440 kts 96°
2026-05-07 11:35 50.82013 10.52977 34987 ft 439 kts 96°
2026-05-07 11:36 50.81424 10.62584 34979 ft 439 kts 96°
2026-05-07 11:36 50.80912 10.72199 34987 ft 439 kts 90°
2026-05-07 11:37 50.81559 10.81799 34984 ft 440 kts 82°
2026-05-07 11:37 50.82406 10.91376 34982 ft 440 kts 83°
2026-05-07 11:38 50.83240 11.00967 34989 ft 440 kts 83°
2026-05-07 11:38 50.84063 11.10565 34991 ft 440 kts 83°
2026-05-07 11:38 50.84419 11.14744 35079 ft 453 kts 83°